| time (UTC) | temp F | wind direction | speed MPH | gust MPH | rain 1hr in | rain 24hr in | rain mn in | humidity % | barometer mb |
| 20260502170211 | 64 | 52 | 4.0 | 9.0 | 0.00 | 0.00 | 0.00 | 43 | 1002.3 |
| 20260502164210 | 64 | 4 | 5.0 | 11.0 | 0.00 | 0.00 | 0.00 | 44 | 1002.2 |
| 20260502163712 | 64 | 58 | 4.0 | 14.0 | 0.00 | 0.00 | 0.00 | 42 | 1002.1 |
| 20260502163210 | 64 | 354 | 4.0 | 14.0 | 0.00 | 0.00 | 0.00 | 43 | 1002.1 |
| 20260502162711 | 64 | 55 | 5.0 | 12.0 | 0.00 | 0.00 | 0.00 | 45 | 1002.0 |
| 20260502162211 | 64 | 58 | 6.0 | 12.0 | 0.00 | 0.00 | 0.00 | 44 | 1002.1 |
| 20260502161713 | 64 | 63 | 4.0 | 14.0 | 0.00 | 0.00 | 0.00 | 44 | 1001.9 |
| 20260502161209 | 64 | 100 | 3.0 | 9.0 | 0.00 | 0.00 | 0.00 | 47 | 1001.9 |
| 20260502160711 | 64 | 14 | 5.0 | 9.0 | 0.00 | 0.00 | 0.00 | 46 | 1002.0 |
| 20260502160210 | 64 | 75 | 2.0 | 6.0 | 0.00 | 0.00 | 0.00 | 48 | 1001.9 |
| 20260502152209 | 61 | 266 | 1.0 | 5.0 | 0.00 | 0.00 | 0.00 | 61 | 1001.9 |
| 20260502151938 | 60 | 110 | 2.0 | 5.0 | 0.00 | 0.00 | 0.00 | 64 | 1001.9 |
| 20260502151208 | 60 | 323 | 1.0 | 5.0 | 0.00 | 0.00 | 0.00 | 63 | 1001.9 |
| 20260502150707 | 59 | 355 | 1.0 | 7.0 | 0.00 | 0.00 | 0.00 | 64 | 1001.9 |
| 20260502150439 | 58 | 0 | 4.0 | 7.0 | 0.00 | 0.00 | 0.00 | 64 | 1001.8 |
| 20260502130703 | 43 | 237 | 0.0 | 2.0 | 0.00 | 0.00 | 0.00 | 95 | 1001.9 |
| 20260502130206 | 42 | 237 | 0.0 | 2.0 | 0.00 | 0.00 | 0.00 | 94 | 1001.8 |
| 20260502123703 | 41 | 237 | 0.0 | 2.0 | 0.00 | 0.00 | 0.00 | 94 | 1001.7 |
| 20260502123205 | 41 | 237 | 0.0 | 2.0 | 0.00 | 0.00 | 0.00 | 94 | 1001.7 |
| 20260502122203 | 40 | 237 | 0.0 | 1.0 | 0.00 | 0.00 | 0.00 | 93 | 1001.6 |
| 20260502121703 | 39 | 237 | 0.0 | 1.0 | 0.00 | 0.00 | 0.00 | 93 | 1001.6 |
| 20260502121202 | 39 | 237 | 0.0 | 1.0 | 0.00 | 0.00 | 0.00 | 93 | 1001.5 |
| 20260502120702 | 39 | 237 | 0.0 | 1.0 | 0.00 | 0.00 | 0.00 | 93 | 1001.5 |
| 20260502120203 | 39 | 237 | 0.0 | 2.0 | 0.00 | 0.00 | 0.00 | 93 | 1001.4 |
| 20260502115701 | 39 | 237 | 1.0 | 2.0 | 0.00 | 0.00 | 0.00 | 93 | 1001.3 |
| 20260502115201 | 39 | 237 | 1.0 | 2.0 | 0.00 | 0.00 | 0.00 | 93 | 1001.3 |
| 20260502114931 | 39 | 237 | 1.0 | 2.0 | 0.00 | 0.00 | 0.00 | 93 | 1001.3 |
| 20260502114200 | 38 | 97 | 0.0 | 0.0 | 0.00 | 0.00 | 0.00 | 93 | 1001.2 |
| 20260502113702 | 38 | 97 | 0.0 | 1.0 | 0.00 | 0.00 | 0.00 | 92 | 1001.1 |
| 20260502113201 | 38 | 97 | 0.0 | 2.0 | 0.00 | 0.00 | 0.00 | 92 | 1001.1 |
| 20260502112700 | 38 | 97 | 1.0 | 2.0 | 0.00 | 0.00 | 0.00 | 92 | 1001.1 |
| 20260502112201 | 38 | 97 | 1.0 | 2.0 | 0.00 | 0.00 | 0.00 | 92 | 1001.0 |
| 20260502111701 | 38 | 97 | 0.0 | 0.0 | 0.00 | 0.00 | 0.00 | 92 | 1001.0 |
| 20260502111432 | 38 | 97 | 0.0 | 1.0 | 0.00 | 0.00 | 0.00 | 92 | 1001.1 |
| 20260502110701 | 38 | 97 | 0.0 | 1.0 | 0.00 | 0.00 | 0.00 | 92 | 1001.0 |
| 20260502110201 | 38 | 97 | 0.0 | 2.0 | 0.00 | 0.00 | 0.00 | 92 | 1000.9 |
| 20260502105700 | 38 | 97 | 0.0 | 2.0 | 0.00 | 0.00 | 0.00 | 92 | 1000.8 |
| 20260502105200 | 38 | 97 | 0.0 | 1.0 | 0.00 | 0.00 | 0.00 | 92 | 1000.8 |
| 20260502104700 | 38 | 97 | 0.0 | 0.0 | 0.00 | 0.00 | 0.00 | 91 | 1000.8 |
| 20260502104431 | 38 | 97 | 0.0 | 3.0 | 0.00 | 0.00 | 0.00 | 91 | 1000.8 |
| 20260502103659 | 38 | 97 | 0.0 | 3.0 | 0.00 | 0.00 | 0.00 | 91 | 1000.7 |
| 20260502103200 | 38 | 97 | 0.0 | 1.0 | 0.00 | 0.00 | 0.00 | 91 | 1000.7 |
| 20260502102700 | 38 | 97 | 0.0 | 1.0 | 0.00 | 0.00 | 0.00 | 91 | 1000.6 |
| 20260502102159 | 39 | 97 | 0.0 | 1.0 | 0.00 | 0.00 | 0.00 | 91 | 1000.7 |
| 20260502101931 | 39 | 97 | 0.0 | 0.0 | 0.00 | 0.00 | 0.00 | 91 | 1000.7 |
| 20260502101200 | 39 | 97 | 0.0 | 2.0 | 0.00 | 0.00 | 0.00 | 91 | 1000.7 |
| 20260502100659 | 39 | 97 | 0.0 | 2.0 | 0.00 | 0.00 | 0.00 | 92 | 1000.9 |
| 20260502100159 | 38 | 97 | 1.0 | 2.0 | 0.00 | 0.00 | 0.00 | 91 | 1000.9 |
| 20260502091157 | 39 | 103 | 0.0 | 0.0 | 0.00 | 0.00 | 0.00 | 90 | 1000.5 |
| 20260502090656 | 39 | 103 | 0.0 | 0.0 | 0.00 | 0.00 | 0.00 | 90 | 1000.5 |
| 20260502090157 | 39 | 103 | 0.0 | 0.0 | 0.00 | 0.00 | 0.00 | 90 | 1000.5 |
| 20260502071152 | 41 | 103 | 0.0 | 2.0 | 0.00 | 0.00 | 0.00 | 88 | 1000.9 |
| 20260502070653 | 41 | 103 | 1.0 | 2.0 | 0.00 | 0.00 | 0.00 | 88 | 1001.1 |
| 20260502070152 | 41 | 103 | 0.0 | 0.0 | 0.00 | 0.00 | 0.00 | 88 | 1001.2 |
| 20260502065652 | 41 | 103 | 0.0 | 0.0 | 0.00 | 0.00 | 0.00 | 87 | 1001.2 |
| 20260502065151 | 41 | 103 | 0.0 | 1.0 | 0.00 | 0.00 | 0.00 | 87 | 1001.1 |
| 20260502064653 | 41 | 103 | 0.0 | 2.0 | 0.00 | 0.00 | 0.00 | 87 | 1001.1 |
| 20260502064151 | 42 | 103 | 1.0 | 2.0 | 0.00 | 0.00 | 0.00 | 87 | 1001.1 |
| 20260502063653 | 42 | 103 | 0.0 | 1.0 | 0.00 | 0.00 | 0.00 | 87 | 1001.2 |
| 20260502063150 | 42 | 103 | 0.0 | 1.0 | 0.00 | 0.00 | 0.00 | 86 | 1001.2 |
| 20260502062650 | 42 | 103 | 0.0 | 1.0 | 0.00 | 0.00 | 0.00 | 86 | 1001.3 |
| 20260502062151 | 42 | 103 | 0.0 | 1.0 | 0.00 | 0.00 | 0.00 | 86 | 1001.2 |
| 20260502061651 | 42 | 103 | 0.0 | 0.0 | 0.00 | 0.00 | 0.00 | 86 | 1001.3 |
| 20260502061150 | 42 | 103 | 0.0 | 0.0 | 0.00 | 0.00 | 0.00 | 86 | 1001.3 |
| 20260502060650 | 42 | 103 | 0.0 | 0.0 | 0.00 | 0.00 | 0.00 | 86 | 1001.4 |
| 20260502060151 | 43 | 103 | 0.0 | 0.0 | 0.00 | 0.00 | 0.00 | 85 | 1001.4 |
| 20260502055650 | 43 | 103 | 0.0 | 0.0 | 0.00 | 0.00 | 0.00 | 85 | 1001.4 |
| 20260502055149 | 43 | 103 | 0.0 | 0.0 | 0.00 | 0.00 | 0.00 | 85 | 1001.3 |
| 20260502054649 | 43 | 103 | 0.0 | 0.0 | 0.00 | 0.00 | 0.00 | 85 | 1001.2 |
| 20260502054149 | 43 | 103 | 0.0 | 1.0 | 0.00 | 0.00 | 0.00 | 85 | 1001.4 |
| 20260502053651 | 43 | 103 | 0.0 | 2.0 | 0.00 | 0.00 | 0.00 | 85 | 1001.2 |
| 20260502053147 | 44 | 103 | 1.0 | 2.0 | 0.00 | 0.00 | 0.00 | 85 | 1001.1 |
| 20260502052701 | 44 | 103 | 1.0 | 2.0 | 0.00 | 0.00 | 0.00 | 84 | 1001.3 |
| 20260502052419 | 44 | 103 | 0.0 | 0.0 | 0.00 | 0.00 | 0.00 | 83 | 1001.2 |
| 20260502051649 | 44 | 103 | 0.0 | 0.0 | 0.00 | 0.00 | 0.00 | 83 | 1001.2 |
| 20260502051147 | 44 | 103 | 0.0 | 0.0 | 0.00 | 0.00 | 0.00 | 82 | 1001.2 |
| 20260502050645 | 44 | 103 | 0.0 | 0.0 | 0.00 | 0.00 | 0.00 | 82 | 1001.2 |
| 20260502050145 | 44 | 103 | 0.0 | 0.0 | 0.00 | 0.00 | 0.00 | 82 | 1001.1 |
| 20260502045646 | 45 | 103 | 0.0 | 0.0 | 0.00 | 0.00 | 0.00 | 82 | 1001.2 |
| 20260502045148 | 45 | 103 | 0.0 | 1.0 | 0.00 | 0.00 | 0.00 | 81 | 1001.2 |
| 20260502044645 | 45 | 103 | 0.0 | 1.0 | 0.00 | 0.00 | 0.00 | 81 | 1001.1 |
| 20260502044146 | 45 | 103 | 1.0 | 1.0 | 0.00 | 0.00 | 0.00 | 81 | 1001.0 |
| 20260502043645 | 46 | 103 | 0.0 | 0.0 | 0.00 | 0.00 | 0.00 | 80 | 1001.1 |
| 20260502043145 | 46 | 103 | 0.0 | 0.0 | 0.00 | 0.00 | 0.00 | 80 | 1001.1 |
| 20260502042146 | 46 | 103 | 0.0 | 1.0 | 0.00 | 0.00 | 0.00 | 79 | 1001.2 |
| 20260502041645 | 47 | 103 | 0.0 | 1.0 | 0.00 | 0.00 | 0.00 | 79 | 1001.1 |
| 20260502041144 | 47 | 103 | 0.0 | 2.0 | 0.00 | 0.00 | 0.00 | 78 | 1001.2 |
| 20260502040644 | 47 | 103 | 0.0 | 2.0 | 0.00 | 0.00 | 0.00 | 78 | 1001.1 |
| 20260502040144 | 47 | 103 | 0.0 | 0.0 | 0.00 | 0.00 | 0.00 | 77 | 1001.2 |
| 20260502035916 | 48 | 103 | 0.0 | 1.0 | 0.00 | 0.00 | 0.00 | 77 | 1001.2 |
| 20260502034650 | 48 | 103 | 0.0 | 0.0 | 0.00 | 0.00 | 0.00 | 75 | 1001.3 |
| 20260502034148 | 48 | 103 | 0.0 | 0.0 | 0.00 | 0.00 | 0.00 | 75 | 1001.4 |
| 20260502033645 | 48 | 103 | 0.0 | 0.0 | 0.00 | 0.00 | 0.00 | 74 | 1001.5 |
| 20260502033144 | 49 | 103 | 0.0 | 0.0 | 0.00 | 0.00 | 0.00 | 74 | 1001.6 |
| 20260502032643 | 49 | 103 | 0.0 | 1.0 | 0.00 | 0.00 | 0.00 | 74 | 1001.5 |
| 20260502032143 | 49 | 103 | 0.0 | 2.0 | 0.00 | 0.00 | 0.00 | 73 | 1001.4 |
| 20260502031643 | 49 | 103 | 0.0 | 2.0 | 0.00 | 0.00 | 0.00 | 72 | 1001.5 |
| 20260502031144 | 49 | 103 | 0.0 | 1.0 | 0.00 | 0.00 | 0.00 | 72 | 1001.6 |
| 20260502030643 | 50 | 103 | 0.0 | 1.0 | 0.00 | 0.00 | 0.00 | 72 | 1001.6 |
| 20260502030144 | 50 | 103 | 0.0 | 2.0 | 0.00 | 0.00 | 0.00 | 72 | 1001.5 |
| 20260502025644 | 50 | 103 | 1.0 | 2.0 | 0.00 | 0.00 | 0.00 | 72 | 1001.6 |
| 20260502025143 | 50 | 103 | 0.0 | 1.0 | 0.00 | 0.00 | 0.00 | 71 | 1001.6 |
| 20260502024644 | 51 | 103 | 0.0 | 2.0 | 0.00 | 0.00 | 0.00 | 69 | 1001.6 |
| 20260502024143 | 51 | 103 | 0.0 | 2.0 | 0.00 | 0.00 | 0.00 | 69 | 1001.6 |
| 20260502023645 | 51 | 103 | 0.0 | 1.0 | 0.00 | 0.00 | 0.00 | 68 | 1001.6 |
| 20260502023413 | 51 | 103 | 0.0 | 2.0 | 0.00 | 0.00 | 0.00 | 69 | 1001.6 |
| 20260502022643 | 52 | 103 | 1.0 | 2.0 | 0.00 | 0.00 | 0.00 | 68 | 1001.4 |
| 20260502022143 | 52 | 103 | 2.0 | 2.0 | 0.00 | 0.00 | 0.00 | 68 | 1001.4 |
| 20260502021642 | 52 | 103 | 1.0 | 2.0 | 0.00 | 0.00 | 0.00 | 67 | 1001.3 |
| 20260502021143 | 53 | 103 | 1.0 | 2.0 | 0.00 | 0.00 | 0.00 | 66 | 1001.3 |
| 20260502020641 | 53 | 103 | 1.0 | 2.0 | 0.00 | 0.00 | 0.00 | 65 | 1001.2 |
| 20260502020142 | 53 | 103 | 1.0 | 2.0 | 0.00 | 0.00 | 0.00 | 65 | 1001.1 |
| 20260502015642 | 54 | 103 | 1.0 | 2.0 | 0.00 | 0.00 | 0.00 | 64 | 1001.1 |
| 20260502015141 | 54 | 103 | 1.0 | 2.0 | 0.00 | 0.00 | 0.00 | 63 | 1001.2 |
| 20260502014641 | 55 | 103 | 1.0 | 2.0 | 0.00 | 0.00 | 0.00 | 62 | 1001.1 |
| 20260502014142 | 56 | 103 | 1.0 | 2.0 | 0.00 | 0.00 | 0.00 | 60 | 1001.1 |
| 20260502013642 | 56 | 103 | 1.0 | 2.0 | 0.00 | 0.00 | 0.00 | 59 | 1000.9 |
| 20260502013142 | 56 | 103 | 0.0 | 2.0 | 0.00 | 0.00 | 0.00 | 57 | 1000.8 |
| 20260502012641 | 57 | 103 | 0.0 | 2.0 | 0.00 | 0.00 | 0.00 | 57 | 1000.7 |
| 20260502012141 | 57 | 103 | 2.0 | 3.0 | 0.00 | 0.00 | 0.00 | 56 | 1000.6 |
| 20260502011912 | 58 | 103 | 1.0 | 3.0 | 0.00 | 0.00 | 0.00 | 54 | 1000.5 |
| 20260502011141 | 59 | 103 | 2.0 | 2.0 | 0.00 | 0.00 | 0.00 | 52 | 1000.4 |
| 20260502010640 | 60 | 103 | 0.0 | 2.0 | 0.00 | 0.00 | 0.00 | 50 | 1000.3 |
| 20260502010141 | 60 | 103 | 1.0 | 2.0 | 0.00 | 0.00 | 0.00 | 49 | 1000.1 |
| 20260502005911 | 61 | 103 | 1.0 | 2.0 | 0.00 | 0.00 | 0.00 | 47 | 999.9 |
| 20260502005141 | 62 | 103 | 0.0 | 2.0 | 0.00 | 0.00 | 0.00 | 45 | 999.9 |
| 20260502004642 | 62 | 103 | 1.0 | 1.0 | 0.00 | 0.00 | 0.00 | 43 | 999.8 |
| 20260502004141 | 62 | 103 | 0.0 | 2.0 | 0.00 | 0.00 | 0.00 | 42 | 999.8 |
| 20260502003640 | 63 | 103 | 0.0 | 3.0 | 0.00 | 0.00 | 0.00 | 41 | 999.7 |
| 20260502003139 | 63 | 103 | 1.0 | 3.0 | 0.00 | 0.00 | 0.00 | 39 | 999.5 |
| 20260502002641 | 63 | 103 | 0.0 | 3.0 | 0.00 | 0.00 | 0.00 | 39 | 999.5 |
| 20260502002141 | 64 | 87 | 2.0 | 5.0 | 0.00 | 0.00 | 0.00 | 38 | 999.3 |
| 20260502001912 | 64 | 0 | 2.0 | 6.0 | 0.00 | 0.00 | 0.00 | 36 | 999.2 |
| 20260502001140 | 64 | 31 | 2.0 | 6.0 | 0.00 | 0.00 | 0.00 | 36 | 999.2 |
| 20260502000639 | 64 | 71 | 3.0 | 6.0 | 0.00 | 0.00 | 0.00 | 36 | 999.2 |
| 20260502000411 | 64 | 76 | 3.0 | 5.0 | 0.00 | 0.00 | 0.00 | 35 | 999.1 |
| 20260501235643 | 65 | 106 | 2.0 | 5.0 | 0.00 | 0.00 | 0.00 | 35 | 999.1 |
| 20260501235138 | 65 | 94 | 2.0 | 5.0 | 0.00 | 0.00 | 0.00 | 34 | 999.1 |
| 20260501234639 | 65 | 76 | 2.0 | 4.0 | 0.00 | 0.00 | 0.00 | 34 | 999.1 |
| 20260501234139 | 65 | 0 | 3.0 | 5.0 | 0.00 | 0.00 | 0.00 | 33 | 999.1 |
| 20260501233641 | 65 | 92 | 4.0 | 6.0 | 0.00 | 0.00 | 0.00 | 33 | 999.1 |
| 20260501233410 | 65 | 11 | 3.0 | 6.0 | 0.00 | 0.00 | 0.00 | 33 | 999.1 |
| 20260501232912 | 65 | 75 | 3.0 | 5.0 | 0.00 | 0.00 | 0.00 | 33 | 999.0 |
| 20260501232139 | 66 | 41 | 2.0 | 7.0 | 0.00 | 0.00 | 0.00 | 33 | 998.9 |
| 20260501231913 | 66 | 41 | 4.0 | 7.0 | 0.00 | 0.00 | 0.00 | 31 | 998.9 |
| 20260501231410 | 66 | 34 | 2.0 | 5.0 | 0.00 | 0.00 | 0.00 | 32 | 998.8 |
| 20260501230909 | 66 | 58 | 2.0 | 5.0 | 0.00 | 0.00 | 0.00 | 32 | 998.9 |
| 20260501230409 | 66 | 96 | 3.0 | 7.0 | 0.00 | 0.00 | 0.00 | 32 | 998.8 |
| 20260501225637 | 66 | 96 | 3.0 | 7.0 | 0.00 | 0.00 | 0.00 | 32 | 998.9 |
| 20260501225136 | 66 | 133 | 2.0 | 9.0 | 0.00 | 0.00 | 0.00 | 31 | 998.8 |
| 20260501224637 | 67 | 1 | 4.0 | 9.0 | 0.00 | 0.00 | 0.00 | 32 | 998.8 |
| 20260501224138 | 67 | 176 | 2.0 | 5.0 | 0.00 | 0.00 | 0.00 | 32 | 998.7 |
| 20260501223636 | 67 | 10 | 4.0 | 9.0 | 0.00 | 0.00 | 0.00 | 32 | 998.8 |
| 20260501223136 | 67 | 34 | 2.0 | 10.0 | 0.00 | 0.00 | 0.00 | 31 | 998.6 |
| 20260501222637 | 67 | 134 | 4.0 | 10.0 | 0.00 | 0.00 | 0.00 | 31 | 998.4 |
| 20260501221636 | 67 | 110 | 4.0 | 9.0 | 0.00 | 0.00 | 0.00 | 33 | 997.9 |
| 20260501221137 | 67 | 56 | 3.0 | 5.0 | 0.00 | 0.00 | 0.00 | 33 | 997.7 |
| 20260501220636 | 67 | 154 | 2.0 | 6.0 | 0.00 | 0.00 | 0.00 | 33 | 997.7 |
| 20260501220136 | 67 | 83 | 3.0 | 10.0 | 0.00 | 0.00 | 0.00 | 32 | 997.9 |
| 20260501215636 | 67 | 27 | 4.0 | 12.0 | 0.00 | 0.00 | 0.00 | 31 | 998.0 |
| 20260501215135 | 67 | 120 | 4.0 | 13.0 | 0.00 | 0.00 | 0.00 | 31 | 997.8 |
| 20260501214634 | 67 | 110 | 3.0 | 13.0 | 0.00 | 0.00 | 0.00 | 31 | 998.1 |
| 20260501214136 | 67 | 69 | 2.0 | 4.0 | 0.00 | 0.00 | 0.00 | 32 | 998.3 |
| 20260501213634 | 67 | 86 | 2.0 | 4.0 | 0.00 | 0.00 | 0.00 | 32 | 998.2 |
| 20260501213136 | 67 | 348 | 2.0 | 5.0 | 0.00 | 0.00 | 0.00 | 31 | 998.4 |
| 20260501212634 | 67 | 0 | 2.0 | 5.0 | 0.00 | 0.00 | 0.00 | 31 | 998.4 |
| 20260501212406 | 67 | 220 | 3.0 | 6.0 | 0.00 | 0.00 | 0.00 | 28 | 998.6 |
| 20260501211909 | 67 | 241 | 5.0 | 6.0 | 0.00 | 0.00 | 0.00 | 30 | 998.8 |
| 20260501211135 | 67 | 20 | 3.0 | 6.0 | 0.00 | 0.00 | 0.00 | 29 | 998.9 |
| 20260501210908 | 67 | 65 | 2.0 | 7.0 | 0.00 | 0.00 | 0.00 | 29 | 999.0 |
| 20260501210135 | 67 | 92 | 4.0 | 9.0 | 0.00 | 0.00 | 0.00 | 30 | 999.0 |
| 20260501205906 | 67 | 41 | 2.0 | 9.0 | 0.00 | 0.00 | 0.00 | 29 | 999.0 |
| 20260501205135 | 67 | 62 | 4.0 | 5.0 | 0.00 | 0.00 | 0.00 | 30 | 999.2 |
| 20260501204634 | 68 | 254 | 1.0 | 4.0 | 0.00 | 0.00 | 0.00 | 31 | 999.3 |
| 20260501204133 | 68 | 354 | 2.0 | 6.0 | 0.00 | 0.00 | 0.00 | 31 | 999.3 |
| 20260501203633 | 68 | 200 | 3.0 | 6.0 | 0.00 | 0.00 | 0.00 | 29 | 999.4 |
| 20260501203135 | 68 | 42 | 4.0 | 6.0 | 0.00 | 0.00 | 0.00 | 30 | 999.5 |
| 20260501202633 | 68 | 204 | 2.0 | 6.0 | 0.00 | 0.00 | 0.00 | 33 | 999.6 |
| 20260501202136 | 68 | 1 | 1.0 | 6.0 | 0.00 | 0.00 | 0.00 | 30 | 999.7 |
| 20260501201633 | 68 | 44 | 1.0 | 6.0 | 0.00 | 0.00 | 0.00 | 30 | 999.8 |
| 20260501201134 | 68 | 338 | 1.0 | 6.0 | 0.00 | 0.00 | 0.00 | 29 | 999.9 |
| 20260501200633 | 68 | 27 | 2.0 | 9.0 | 0.00 | 0.00 | 0.00 | 32 | 1000.1 |
| 20260501200132 | 67 | 28 | 2.0 | 9.0 | 0.00 | 0.00 | 0.00 | 32 | 1000.2 |
| 20260501195904 | 67 | 358 | 4.0 | 7.0 | 0.00 | 0.00 | 0.00 | 32 | 1000.3 |
| 20260501195133 | 67 | 65 | 3.0 | 9.0 | 0.00 | 0.00 | 0.00 | 32 | 1000.4 |
| 20260501194632 | 67 | 65 | 3.0 | 9.0 | 0.00 | 0.00 | 0.00 | 32 | 1000.5 |
| 20260501194409 | 67 | 79 | 5.0 | 7.0 | 0.00 | 0.00 | 0.00 | 30 | 1000.5 |
| 20260501193632 | 67 | 13 | 5.0 | 7.0 | 0.00 | 0.00 | 0.00 | 31 | 1000.7 |
| 20260501193408 | 67 | 235 | 4.0 | 7.0 | 0.00 | 0.00 | 0.00 | 30 | 1000.7 |
| 20260501192632 | 67 | 252 | 2.0 | 5.0 | 0.00 | 0.00 | 0.00 | 33 | 1000.8 |
| 20260501192131 | 67 | 83 | 3.0 | 5.0 | 0.00 | 0.00 | 0.00 | 33 | 1001.0 |
| 20260501191630 | 67 | 71 | 2.0 | 9.0 | 0.00 | 0.00 | 0.00 | 32 | 1001.0 |
| 20260501191131 | 67 | 52 | 3.0 | 10.0 | 0.00 | 0.00 | 0.00 | 31 | 1001.0 |
| 20260501190630 | 66 | 54 | 5.0 | 10.0 | 0.00 | 0.00 | 0.00 | 35 | 1000.9 |
| 20260501190131 | 66 | 0 | 3.0 | 10.0 | 0.00 | 0.00 | 0.00 | 34 | 1001.0 |
| 20260501185631 | 66 | 228 | 4.0 | 10.0 | 0.00 | 0.00 | 0.00 | 34 | 1001.1 |
| 20260501185131 | 67 | 18 | 3.0 | 9.0 | 0.00 | 0.00 | 0.00 | 34 | 1001.1 |
| 20260501184903 | 66 | 345 | 4.0 | 9.0 | 0.00 | 0.00 | 0.00 | 32 | 1001.2 |
| 20260501184129 | 67 | 62 | 2.0 | 5.0 | 0.00 | 0.00 | 0.00 | 31 | 1001.2 |
| 20260501183630 | 67 | 51 | 3.0 | 5.0 | 0.00 | 0.00 | 0.00 | 32 | 1001.3 |
| 20260501183400 | 66 | 221 | 2.0 | 5.0 | 0.00 | 0.00 | 0.00 | 32 | 1001.5 |
| 20260501182629 | 66 | 76 | 3.0 | 7.0 | 0.00 | 0.00 | 0.00 | 33 | 1001.5 |
| 20260501182131 | 66 | 142 | 3.0 | 7.0 | 0.00 | 0.00 | 0.00 | 35 | 1001.5 |
| 20260501181900 | 65 | 120 | 3.0 | 6.0 | 0.00 | 0.00 | 0.00 | 32 | 1001.4 |
| 20260501181130 | 65 | 82 | 3.0 | 6.0 | 0.00 | 0.00 | 0.00 | 34 | 1001.4 |
| 20260501180902 | 65 | 62 | 2.0 | 7.0 | 0.00 | 0.00 | 0.00 | 34 | 1001.4 |
| 20260501180129 | 64 | 0 | 1.0 | 7.0 | 0.00 | 0.00 | 0.00 | 32 | 1001.4 |
| 20260501175859 | 64 | 16 | 4.0 | 9.0 | 0.00 | 0.00 | 0.00 | 32 | 1001.5 |
| 20260501175130 | 64 | 0 | 3.0 | 12.0 | 0.00 | 0.00 | 0.00 | 32 | 1001.3 |
| 20260501174629 | 64 | 45 | 4.0 | 12.0 | 0.00 | 0.00 | 0.00 | 33 | 1001.3 |
| 20260501174129 | 64 | 38 | 3.0 | 7.0 | 0.00 | 0.00 | 0.00 | 35 | 1001.4 |
| 20260501173630 | 64 | 52 | 4.0 | 7.0 | 0.00 | 0.00 | 0.00 | 33 | 1001.4 |
| 20260501173128 | 64 | 72 | 3.0 | 7.0 | 0.00 | 0.00 | 0.00 | 35 | 1001.4 |
| 20260501172628 | 64 | 69 | 3.0 | 6.0 | 0.00 | 0.00 | 0.00 | 36 | 1001.6 |
| 20260501172129 | 64 | 20 | 4.0 | 9.0 | 0.00 | 0.00 | 0.00 | 33 | 1001.6 |
| 20260501171128 | 63 | 275 | 2.0 | 4.0 | 0.00 | 0.00 | 0.00 | 42 | 1001.7 |